SCP
0 0 0 0 0 0 0 0 0 0 0 0 0 0 0 0 0 0 0 0 0 0 0 0 0 0 0 0 0 0 0 0 0 0 0 0 0 0 0 0 0 0 0
0 0 0 0 0 0 0 0 0 0 0 0 0 0 0 0 0 0 0 0 0 0 0 0 0 0 0 0 0 0 0 0 0 0 0 0 0 0 0 0 0 0 0
0 0 0 0 0 0 0 0 0 0 0 0 0 0 0 0 0 0 0 0 0 0 0 0 0 0 0 0 0 0 0 0 0 0 0 0 0 0 0 0 0 0 0
0 0 0 0 0 0 0 0 0 0 0 0 0 0 0 0 0 0 0 0 0 0 0 0 0 0 0 0 0 0 0 0 0 0 0 0 0 0 0 0 0 0 0
0 0 0 0 0 0 0 0 0 0 0 0 0 0 0 0 0 0 0 0 0 0 0 0 0 0 0 0 0 0 0 0 0 0 0 0 0 0 0 0 0 0 0
0 0 0 0 0 0 0 0 0 0 0 0 0 0 0 0 0 0 0 0 0 0 0 0 0 0 0 0 0 0 0 0 0 0 0 0 0 0 0 0 0 0 0
0 0 0 0 0 0 0 0 0 0 0 0 0 0 0 0 0 0 0 0 0 0 0 0 0 0 0 0 0 0 0 0 0 0 0 0 0 0 0 0 0 0 0
0 0 0 0 0 0 0 0 0 0 0 0 0 0 0 0 0 0 0 0 0 0 0 0 0 0 0 0 0 0 0 0 0 0 0 0 0 0 0 0 0 0 0
0 0 0 0 0 0 0 0 0 0 0 0 0 0 0 0 0 0 0 0 0 0 0 0 0 0 0 0 0 0 0 0 0 0 0 0 0 0 0 0 0 0 0
0 0 0 0 0 0 0 0 0 0 0 0 0 0 0 0 0 0 0 0 0 0 0 0 0 0 0 0 0 0 0 0 0 0 0 0 0 0 0 0 0 0 0
0 0 0 0 0 0 0 0 0 0 0 0 0 0 0 0 0 0 0 0 0 0 0 0 0 0 0 0 0 0 0 0 0 0 0 0 0 0 0 0 0 0 0
0 0 0 0 0 0 0 0 0 0 0 0 0 0 0 0 0 0 0 0 0 0 0 0 0 0 0 0 0 0 0 0 0 0 0 0 0 0 0 0 0 0 0
0 0 0 0 0 0 0 0 0 0 0 0 0 0 0 0 0 0 0 0 0 0 0 0 0 0 0 0 0 0 0 0 0 0 0 0 0 0 0 0 0 0 0
0 0 0 0 0 0 0 0 0 0 0 0 0 0 0 0 0 0 0 0 0 0 0 0 0 0 0 0 0 0 0 0 0 0 0 0 0 0 0 0 0 0 0
0 0 0 0 0 0 0 0 0 0 0 0 0 0 0 0 0 0 0 0 0 0 0 0 0 0 0 0 0 0 0 0 0 0 0 0 0 0 0 0 0 0 0
0 0 0 0 0 0 0 0 0 0 0 0 0 0 0 0 0 0 0 0 0 0 0 0 0 0 0 0 0 0 0 0 0 0 0 0 0 0 0 0 0 0 0
0 0 0 0 0 0 0 0 0 0 0 0 0 0 0 0 0 0 0 0 0 0 0 0 0 0 0 0 0 0 0 0 0 0 0 0 0 0 0 0 0 0 0
0 0 0 0 0 0 0 0 0 0 0 0 0 0 0 0 0 0 0 0 0 0 0 0 0 0 0 0 0 0 0 0 0 0 0 0 0 0 0 0 0 0 0
0 0 0 0 0 0 0 0 0 0 0 0 0 0 0 0 0 0 0 0 0 0 0 0 0 0 0 0 0 0 0 0 0 0 0 0 0 0 0 0 0 0 0
0 0 0 0 0 0 0 0 0 0 0 0 0 0 0 0 0 0 0 0 0 0 0 0 0 0 0 0 0 0 0 0 0 0 0 0 0 0 0 0 0 0 0
0 0 0 0 0 0 0 0 0 0 0 0 0 0 0 0 0 0 0 0 0 0 0 0 0 0 0 0 0 0 0 0 0 0 0 0 0 0 0 0 0 0 0
0 0 0 0 0 0 0 0 -0 0 0 0 0 0 0 0 0 0 0 0 0 0 0 0 0 0 0 0 0 0 0 0 0 0 0 0 0 0 0 0 0 0 0
0 0 0 0 0 0 0 -0 -0 0 0 0 0 0 0 0 0 0 0 0 0 0 0 0 0 0 0 0 0 0 0 0 0 0 0 0 0 0 0 0 0 0 0
0 0 0 0 0 0 0 0 0 0 0 0 0 0 0 0 0 0 0 0 0 0 0 0 0 0 0 0 0 0 0 0 0 0 0 0 0 0 0 0 0 0 0
0 0 0 0 0 0 0 0 0 0 0 0 0 0 0 0 0 0 0 0 0 0 0 0 0 0 0 0 0 0 0 0 0 0 0 0 0 0 0 0 0 0 0
0 0 0 0 0 0 0 0 0 0 0 0 0 0 0 0 0 0 0 0 0 0 0 0 0 0 0 0 0 0 0 0 0 0 0 0 0 0 0 0 0 0 0
Wind_Speed
4 4 4 4 4 6 7 8 8 9 10 11 12 12 11 12 13 12 12 12 13 11 10 10 10 7 6 5 4 4 3 3 3 2 1 1 2 2 1 1 1 1 1
3 2 2 3 3 4 5 5 6 8 10 11 11 12 12 12 13 14 14 13 13 13 12 11 10 8 8 6 5 5 4 4 4 4 2 2 2 2 2 1 0 0 0
3 3 2 2 3 4 4 4 5 6 8 9 10 11 12 12 12 13 13 13 13 13 12 12 11 10 9 6 6 6 4 3 3 4 3 1 1 1 1 1 0 0 1
3 3 2 2 3 4 4 3 4 5 6 7 9 10 11 12 12 12 13 12 12 11 11 11 11 11 11 9 7 7 5 5 4 4 3 2 2 1 2 1 0 0 1
2 2 2 2 2 2 2 3 3 4 5 6 7 9 9 9 10 11 11 12 11 11 10 9 10 12 13 11 8 8 7 5 5 4 3 2 2 2 3 2 2 0 1
2 2 2 2 2 2 2 2 2 3 3 4 6 8 9 8 12 14 11 10 11 11 10 9 9 11 13 14 14 13 12 9 8 6 4 5 5 4 3 3 2 1 2
3 3 2 2 2 2 2 2 3 3 3 4 4 5 8 9 12 15 13 10 10 10 10 9 7 8 11 8 10 10 10 10 11 9 7 7 6 6 6 4 3 2 2
4 3 2 2 3 2 2 2 3 2 3 4 5 4 5 8 13 14 13 10 9 9 10 10 10 9 9 10 8 7 5 5 7 6 6 6 5 6 7 6 4 2 1
4 4 3 3 3 3 2 2 3 2 3 3 3 4 4 7 11 13 12 7 7 9 9 9 10 10 14 15 10 8 6 3 4 7 7 7 8 8 8 6 4 2 1
4 4 3 3 3 3 3 3 2 2 2 2 2 3 4 5 9 12 12 7 7 7 6 8 11 12 16 17 12 10 9 6 6 6 6 6 5 7 9 6 5 3 2
5 3 3 3 3 3 3 2 2 2 1 1 1 2 3 5 8 12 11 6 7 8 7 6 7 14 16 17 13 9 11 10 7 7 5 4 4 3 3 3 3 3 3
4 3 3 3 3 2 2 2 2 2 2 1 1 1 1 3 6 9 11 9 7 7 7 6 7 14 15 15 11 11 15 12 6 6 5 4 4 3 3 3 3 2 1
4 4 4 4 3 2 2 2 2 1 2 1 1 1 1 1 3 7 10 10 9 5 5 9 11 15 14 11 12 15 13 7 7 6 6 4 3 3 4 3 3 4 4
4 4 3 3 3 3 2 2 2 1 2 2 2 2 1 1 2 3 5 6 8 6 5 9 12 13 9 9 10 9 6 6 6 6 5 4 4 4 3 3 2 2 2
4 3 3 3 3 3 3 2 3 3 3 3 3 3 3 3 4 6 5 5 5 5 6 5 5 6 6 5 5 5 5 5 5 5 6 5 5 4 3 3 3 2 2
4 3 3 3 2 2 2 3 3 3 4 5 5 4 3 4 5 6 6 8 10 12 8 6 6 6 7 7 7 6 5 5 5 6 6 6 6 5 4 3 2 2 2
4 4 3 3 2 2 2 2 3 3 2 2 3 3 4 4 5 7 7 9 11 12 6 6 6 6 6 7 7 6 6 5 6 6 6 6 6 5 5 4 3 2 2
4 5 4 3 2 2 2 2 2 2 2 1 1 2 2 4 6 8 9 9 7 6 4 6 6 6 6 7 6 6 6 6 6 6 6 6 6 5 5 5 4 3 3
4 3 3 2 2 2 2 2 2 2 2 1 1 0 1 3 5 8 9 5 6 5 4 5 5 6 6 6 6 6 6 7 7 6 6 6 6 6 5 5 4 5 4
4 6 5 2 2 2 1 2 2 2 2 2 2 1 1 2 3 4 3 4 5 5 5 5 5 6 6 6 7 7 6 6 7 6 6 6 5 5 6 6 5 5 3
3 4 5 3 2 2 2 2 2 2 2 2 2 2 3 3 3 4 4 4 4 5 5 5 5 6 6 6 6 7 8 7 6 6 6 6 6 5 5 5 5 4 4
3 3 2 2 2 2 2 2 2 2 2 2 2 2 2 2 3 3 3 3 3 4 5 5 5 5 6 7 8 8 8 7 7 7 6 6 6 6 6 5 5 5 5
3 3 3 2 2 3 3 2 2 2 2 2 2 2 2 2 2 3 3 4 4 4 4 5 5 5 5 5 6 7 8 8 8 9 8 8 7 6 6 6 7 6 6
3 3 3 3 2 2 2 2 2 3 3 3 2 3 3 2 2 3 4 4 4 4 4 5 5 7 8 6 5 5 5 6 8 8 10 9 8 7 7 6 6 7 6
3 3 3 3 3 2 2 3 2 3 3 3 2 2 2 3 3 3 3 4 5 5 5 5 5 6 9 9 7 7 10 13 12 9 8 8 9 8 8 8 7 7 6
4 4 3 3 3 3 3 3 3 3 3 3 3 3 3 3 3 4 4 4 5 5 5 5 6 7 8 7 9 12 14 15 15 15 9 8 9 8 8 7 8 7 7
Wind_Direction
256 242 240 241 235 225 219 219 214 209 200 202 199 199 201 197 191 188 190 182 185 188 187 187 191 183 181 179 171 170 177 167 189 198 146 135 144 161 152 162 179 191 244
283 272 254 255 239 227 223 225 219 212 205 204 200 200 201 196 191 189 188 186 188 191 191 189 191 183 185 179 176 180 183 178 173 184 173 155 166 175 162 169 166 135 234
301 288 260 252 244 230 226 226 230 219 210 203 202 202 201 194 190 191 190 188 190 193 191 190 189 182 188 184 180 183 182 173 166 161 169 152 148 141 131 129 113 54 308
306 303 291 262 249 236 226 226 232 226 216 207 207 203 200 191 188 189 188 187 186 190 191 190 188 188 189 183 184 185 175 169 162 152 157 150 149 132 132 153 233 321 310
299 299 281 279 274 267 241 231 235 235 225 217 213 205 194 187 187 184 184 182 183 185 188 190 189 188 185 183 182 181 175 175 168 169 168 160 167 164 183 177 192 284 291
298 297 293 299 297 280 271 252 249 241 227 222 220 204 190 191 186 182 181 182 182 184 186 188 188 187 184 183 181 179 178 179 184 183 188 188 196 189 166 164 151 145 252
309 302 298 302 292 272 275 256 251 254 245 232 224 206 195 190 182 180 179 183 183 185 186 185 184 183 180 181 176 174 180 179 181 184 188 197 188 185 167 165 177 184 210
317 311 302 299 292 279 270 270 254 249 233 233 215 208 199 189 180 177 174 182 182 184 185 184 181 179 178 171 166 171 181 186 185 184 187 188 181 173 172 168 163 126 76
316 312 299 291 289 282 266 269 265 254 248 227 205 201 200 186 177 174 172 178 181 183 183 182 180 180 173 165 163 166 161 157 145 146 143 143 143 148 140 122 124 120 158
303 298 297 288 284 278 268 260 275 259 248 222 218 208 200 189 176 171 171 176 179 177 178 182 182 179 173 168 171 170 170 167 146 132 125 125 131 141 140 147 158 150 143
304 305 305 301 292 282 278 266 274 267 240 213 218 225 204 190 177 173 172 177 179 174 177 182 183 174 171 171 172 176 171 154 148 141 135 126 118 122 129 126 141 152 153
308 307 306 306 302 292 275 277 276 244 198 214 198 249 198 182 176 178 179 178 169 173 179 177 173 168 168 167 169 160 149 142 141 141 142 145 145 143 129 114 102 87 114
311 304 302 304 301 293 266 259 275 225 191 213 206 238 233 188 175 176 176 170 163 163 166 162 161 162 161 162 157 152 148 147 149 151 159 160 150 141 123 104 87 79 63
291 290 294 302 305 305 285 253 251 237 206 210 220 224 227 204 187 178 176 164 151 142 139 144 147 150 146 145 149 151 150 158 156 157 150 137 129 130 130 124 119 104 75
296 298 301 296 293 299 302 277 258 248 233 224 221 209 210 219 214 194 184 174 163 151 136 131 137 145 147 147 144 142 146 148 145 139 139 140 140 138 138 133 126 119 110
299 298 291 290 290 292 305 319 306 261 260 249 239 231 233 225 206 187 176 166 154 149 142 149 156 158 159 161 159 156 157 156 152 147 147 150 152 152 147 142 137 138 135
279 282 283 283 283 287 289 295 316 336 313 243 239 236 228 203 187 171 161 154 153 150 146 157 163 165 163 164 163 162 162 158 152 152 152 153 152 152 153 152 151 144 137
276 278 279 270 268 264 261 260 247 259 292 310 283 229 209 188 174 163 156 142 149 154 158 161 164 165 164 164 161 157 151 149 151 152 152 153 154 155 157 157 158 157 147
277 275 272 265 261 255 253 258 245 233 235 255 297 311 181 167 160 158 154 155 161 166 162 162 161 161 162 160 155 152 153 155 154 153 154 155 158 156 157 156 154 153 139
283 283 283 272 265 265 259 256 250 233 225 220 224 216 183 150 149 158 161 159 161 164 165 164 160 157 158 156 151 149 150 152 153 152 155 158 160 159 157 155 156 159 159
283 284 289 286 263 259 256 252 248 233 223 224 221 218 215 183 174 174 177 173 168 166 164 160 155 154 156 154 152 153 154 156 157 156 156 159 159 154 150 151 152 150 145
278 272 268 262 264 265 265 250 243 229 217 221 224 202 200 181 169 172 174 172 166 163 162 158 157 159 163 162 160 159 159 159 159 157 156 156 154 149 147 147 147 146 144
274 266 268 264 256 266 276 259 243 226 214 214 205 186 178 176 177 170 168 162 154 153 152 154 152 153 155 157 162 164 165 167 166 161 157 155 153 152 153 153 153 151 152
269 264 259 257 254 243 244 250 244 224 211 203 193 188 182 178 175 165 159 153 150 150 151 153 155 155 155 154 157 157 154 151 151 155 155 154 153 152 151 151 151 151 150
270 264 259 252 248 241 236 242 238 221 202 192 188 189 184 174 166 158 153 153 152 151 151 150 149 152 157 158 157 156 151 147 147 147 148 148 148 149 149 148 146 145 143
269 264 256 248 244 238 234 232 222 209 195 189 186 190 185 174 165 157 153 153 151 149 149 148 149 152 156 159 156 152 151 150 147 145 145 144 145 145 145 141 141 141 142